Regional Weather Roundup
Issued by NWS Northern Indiana

Home | Current Version | Previous Version | Graphics & Text | Print | Product List | Glossary On
Versions: 1 2 3 4 5 6 7 8 9 10 11 12 13 14 15 16 17 18 19 20 21 22 23 24 25 26 27 28 29 30 31 32 33 34 35 36 37 38 39 40 41 42 43 44 45 46 47 48 49 50
000
ASUS43 KIWX 290010
RWRIWX

KIWX WEATHER ROUNDUP
NATIONAL WEATHER SERVICE NORTHERN INDIANA
800 PM EDT THU AUG 28 2014

NOTE: "FAIR" INDICATES FEW OR NO CLOUDS BELOW 12,000 FEET WITH NO
SIGNIFICANT WEATHER AND/OR OBSTRUCTIONS TO VISIBILITY.

* THESE STATIONS ARE NOT UNDER NWS QUALITY CONTROL. THEY ALSO MAY NOT
  REPORT WEATHER SUCH AS PRECIPITATION OR FOG.

INZ001>027-290100-
NORTHERN INDIANA

CITY           SKY/WX    TMP DP  RH WIND       PRES   REMARKS
GARY*          MOCLDY    72  64  78 NE8       30.06F
VALPARAISO     CLEAR     72  66  81 E3        30.05F
6HR MIN TEMP:  72; 6HR MAX TEMP:  81;

MICHIGAN CITY* CLEAR     70  61  73 NE3       30.06F
LAPORTE*       CLEAR     73  64  75 SE3       30.06F
6HR MIN TEMP:  73; 6HR MAX TEMP:  79;

KNOX*          CLEAR     75  65  71 E5        30.04F
6HR MIN TEMP:  41; 6HR MAX TEMP:  88;

SOUTH BEND     PTCLDY    77  60  55 SE8       30.07S
6HR MIN TEMP:  77; 6HR MAX TEMP:  80;

ELKHART*       PTCLDY    75  59  57 SE5       30.08
GOSHEN         PTCLDY    77  62  59 CALM      30.07S
6HR MIN TEMP:  76; 6HR MAX TEMP:  81;

MONTICELLO*    CLEAR     76  67  72 CALM      30.03F
6HR MIN TEMP:  76; 6HR MAX TEMP:  81;

LOGANSPORT*    CLEAR     72  64  78 E6        30.06S
ROCHESTER*     CLEAR     75  64  69 E3        30.07S
WARSAW*        CLEAR     73  63  68 CALM      30.08R
ANGOLA*        CLEAR     73  61  64 SE5       30.09S
FORT WAYNE     PTCLDY    73  62  68 SE5       30.09R
6HR MIN TEMP:  73; 6HR MAX TEMP:  78;

HUNTINGTON*    CLEAR     73  64  75 E3        30.08R
6HR MIN TEMP:  73; 6HR MAX TEMP:  77;

PERU/GRISSOM   CLEAR     76  69  79 E6        30.05F
6HR MIN TEMP:  76; 6HR MAX TEMP:  81;

MARION*        CLEAR     75  63  66 E8        30.08R
6HR MIN TEMP:  40; 6HR MAX TEMP:  88;


$$
INZ028>050-290100-
CENTRAL INDIANA

CITY           SKY/WX    TMP DP  RH WIND       PRES   REMARKS
LAFAYETTE      CLEAR     75  66  73 E9        30.02F
6HR MIN TEMP:  75; 6HR MAX TEMP:  82;

KOKOMO*        CLEAR     73  64  73 E7        30.05F
6HR MIN TEMP:  73; 6HR MAX TEMP:  81;

MUNCIE*        CLEAR     75  64  68 NE8       30.07R
6HR MIN TEMP:  75; 6HR MAX TEMP:  81;

INDIANAPOLIS   PTCLDY    80  65  59 E8        30.03S
6HR MIN TEMP:  80; 6HR MAX TEMP:  84;


$$
MIZ043>046-050>051-056>058-064>065-071>073-077>080-290100-
SOUTHWEST LOWER MICHIGAN

CITY           SKY/WX    TMP DP  RH WIND       PRES   REMARKS
BATTLE CREEK   MOCLDY    71  55  56 NE8       30.10S
6HR MIN TEMP:  71; 6HR MAX TEMP:  76;

BENTON HARBOR  PTCLDY    72  61  68 E6        30.06S
6HR MIN TEMP:  72; 6HR MAX TEMP:  80;

COLDWATER*     PTCLDY    73  58  60 NE6       30.09S
6HR MIN TEMP:  73; 6HR MAX TEMP:  79;

HILLSDALE*     PTCLDY    72  56  57 E3        30.11S
6HR MIN TEMP:  72; 6HR MAX TEMP:  77;

HOLLAND        PTCLDY    71  52  50 E6        30.10S
6HR MIN TEMP:  71; 6HR MAX TEMP:  77;

GRAND RAPIDS   MOCLDY    68  57  68 E6        30.11S
6HR MIN TEMP:  68; 6HR MAX TEMP:  74;

KALAMAZOO      PTCLDY    72  57  59 NE6       30.09S
6HR MIN TEMP:  72; 6HR MAX TEMP:  78;

STURGIS*       PTCLDY    72  61  68 NE3       30.08S
THREE RIVERS*  FAIR      72  61  68 CALM      30.09R

$$
OHZ001>008-015>018-024>025-290100-
NORTHWEST OHIO

CITY           SKY/WX    TMP DP  RH WIND       PRES   REMARKS
WAUSEON*       FAIR      68  59  73 E7        30.10S
DEFIANCE       PTCLDY    73  59  61 NE5       30.09S
6HR MIN TEMP:  73; 6HR MAX TEMP:  79;

FINDLAY        CLEAR     71  57  61 E9        30.10R
6HR MIN TEMP:  71; 6HR MAX TEMP:  79;

TOLEDO EXPRESS PTCLDY    68  57  68 E6        30.10S
6HR MIN TEMP:  68; 6HR MAX TEMP:  77;

TOLEDO METCALF PTCLDY    67  57  70 E6        30.12R
6HR MIN TEMP:  67; 6HR MAX TEMP:  75;

LIMA           PTCLDY    71  63  75 E5        30.10R
6HR MIN TEMP:  71; 6HR MAX TEMP:  78;


$$
&&



USA.gov is the U.S. government's official web portal to all federal, state and local government web resources and services.